GALILEO 17

Last updated on Wed Dec 14 2016 00:15:03 GMT+0000 (Coordinated Universal Time)

1 41861U 16069C 16347.80550543 .00000081 00000-0 00000+0 0 9991 2 41861 54.5760 197.5925 0003459 38.4203 321.6976 1.72627096 428

Satellite not in orbit

GALILEO 17